Weather History for KCEF - December, 2013

Change the Weather History Date:

Saturday, December 14, 2013

  Actual Average Record
Temperature  
Mean Temperature 15 °F -  
Max Temperature 19 °F 37 °F 55 °F (2006)
Min Temperature 11 °F 22 °F -9 °F (2005)
Degree Days  
Heating Degree Days 50    
Moisture  
Dew Point 7 °F    
Average Humidity 78    
Maximum Humidity 100    
Minimum Humidity 57    
Precipitation  
Precipitation 0.17 in - - ()
Snow  
Snow 0.00 in - - ()
Snow Depth 1.00 in    
Sea Level Pressure  
Sea Level Pressure 30.41 in    
Wind  
Wind Speed 9 mph (NNE)    
Max Wind Speed 15 mph    
Max Gust Speed -    
Visibility 5 miles    
Events Snow    
Averages and records for this station are not official NWS values.
T = Trace of Precipitation, MM = Missing Value Source: NWS Daily Summary

Daily Weather History Graph

Daily Weather History Graph

Search for Another Location

Airport or City:

Trip Planner

Search our weather history database for the weather conditions in past years. The results will help you decide how hot, cold, wet, or windy it might be!

Date:

Astronomy

Dec. 14, 2013 Rise Set
Actual Time 7:11 AM EST 4:18 PM EST
Civil Twilight 6:39 AM EST 4:50 PM EST
Nautical Twilight 6:04 AM EST 5:25 PM EST
Astronomical Twilight 5:30 AM EST 5:59 PM EST
Moon 2:40 PM EST (12/14) 4:27 AM EST (12/14)
Length of Visible Light 10h 11m
Length of Day
9h 07m
Waxing Gibbous, 93% of the Moon is Illuminated
Dec 14
Waxing Gibbous
Dec 17
Full
Dec 25
Last Quarter
Jan 1
New
Jan 7
First Quarter

Hourly Weather History & Observations

Time (EST) Temp. Windchill Dew Point Humidity Pressure Visibility Wind Dir Wind Speed Gust Speed Precip Events Conditions
12:58 AM 19.4 °F 9.5 °F 6.6 °F 58% 30.39 in 10.0 mi North 8.1 mph - N/A   Mostly Cloudy
1:58 AM 17.6 °F 6.4 °F 5.4 °F 59% 30.44 in 10.0 mi North 9.2 mph - N/A   Mostly Cloudy
2:58 AM 16.0 °F 7.4 °F 5.5 °F 63% 30.47 in 10.0 mi North 5.8 mph - N/A   Overcast
3:58 AM 14.7 °F 3.8 °F 3.4 °F 61% 30.47 in 10.0 mi NNE 8.1 mph - N/A   Mostly Cloudy
4:58 AM 13.6 °F 2.5 °F 2.7 °F 62% 30.49 in 10.0 mi NNE 8.1 mph - N/A   Scattered Clouds
5:58 AM 13.1 °F 2.8 °F 2.1 °F 62% 30.51 in 10.0 mi North 6.9 mph - N/A   Scattered Clouds
6:58 AM 12.6 °F 1.1 °F 1.9 °F 63% 30.53 in 10.0 mi North 8.1 mph - N/A   Mostly Cloudy
7:58 AM 11.8 °F 0.3 °F 1.8 °F 64% 30.56 in 10.0 mi North 8.1 mph - N/A   Overcast
8:58 AM 12.0 °F 0.5 °F 1.4 °F 62% 30.59 in 10.0 mi North 8.1 mph - N/A   Overcast
9:33 AM 12.2 °F -0.2 °F -0.4 °F 57% 30.57 in 10.0 mi NE 9.2 mph - N/A   Overcast
9:58 AM 12.6 °F 0.2 °F 0.3 °F 58% 30.61 in 10.0 mi North 9.2 mph - N/A   Overcast
9:59 AM 12.2 °F -0.2 °F 1.4 °F 62% 30.58 in 10.0 mi North 9.2 mph - N/A   Overcast
10:05 AM 12.2 °F 0.7 °F -0.4 °F 57% 30.58 in 10.0 mi NNE 8.1 mph - N/A Snow Light Snow
10:58 AM 12.4 °F -0.8 °F 3.0 °F 66% 30.59 in 3.0 mi North 10.4 mph - 0.00 in Snow Light Snow
11:31 AM 12.2 °F 1.7 °F 3.2 °F 67% 30.55 in 3.0 mi North 6.9 mph - N/A Snow Light Snow
11:58 AM 12.6 °F 2.2 °F 4.1 °F 69% 30.58 in 5.0 mi North 6.9 mph - 0.00 in Snow Light Snow
12:58 PM 12.9 °F 2.6 °F 6.4 °F 75% 30.56 in 3.0 mi North 6.9 mph - 0.00 in Snow Light Snow
1:58 PM 13.1 °F 2.8 °F 7.5 °F 78% 30.53 in 4.0 mi NNE 6.9 mph - 0.00 in Snow Light Snow
2:58 PM 13.5 °F 2.2 °F 8.6 °F 81% 30.51 in 4.0 mi NNE 8.1 mph - 0.00 in Snow Light Snow
3:17 PM 14.0 °F 2.9 °F 8.6 °F 79% 30.46 in 2.0 mi NNE 8.1 mph - N/A Snow Light Snow
3:46 PM 14.0 °F 3.9 °F 10.4 °F 86% 30.45 in 3.0 mi NNE 6.9 mph - N/A Snow Light Snow
3:58 PM 14.4 °F 3.3 °F 8.1 °F 76% 30.49 in 2.0 mi NE 8.1 mph - 0.00 in Snow Light Snow
4:06 PM 14.0 °F 2.9 °F 8.6 °F 79% 30.45 in 0.8 mi ENE 8.1 mph - N/A Snow Light Snow
4:58 PM 14.0 °F 3.9 °F 10.6 °F 86% 30.49 in 0.8 mi ENE 6.9 mph - 0.00 in Snow Light Snow
5:37 PM 14.0 °F 3.9 °F 12.2 °F 93% 30.41 in 2.0 mi NNE 6.9 mph - N/A Snow Light Snow
5:58 PM 14.0 °F 1.2 °F 11.3 °F 89% 30.40 in 2.5 mi NNE 10.4 mph - 0.00 in Snow Light Snow
6:58 PM 13.1 °F 1.8 °F 10.6 °F 90% 30.40 in 1.8 mi North 8.1 mph - 0.01 in Snow Light Snow
7:58 PM 12.7 °F 2.4 °F 10.8 °F 92% 30.35 in 1.0 mi NNE 6.9 mph - 0.00 in Snow Light Snow
8:52 PM 12.2 °F -1.8 °F 10.4 °F 92% 30.29 in 0.8 mi North 11.5 mph - N/A Snow Light Snow
8:58 PM 12.9 °F 0.7 °F 11.3 °F 93% 30.32 in 0.8 mi North 9.2 mph - 0.02 in Snow Snow
9:29 PM 12.2 °F -1.8 °F 12.2 °F 100% 30.24 in 0.8 mi NNE 11.5 mph - N/A Snow Snow
9:58 PM 13.1 °F -2.6 °F 11.7 °F 94% 30.25 in 1.0 mi North 15.0 mph - 0.05 in Snow Light Snow
10:58 PM 14.0 °F 0.5 °F 12.2 °F 93% 30.19 in 1.5 mi NNE 11.5 mph - 0.06 in Snow Light Snow
10:59 PM 14.0 °F 0.5 °F 12.2 °F 93% 30.14 in 3.0 mi NNE 11.5 mph - N/A Snow Light Snow
11:10 PM 14.0 °F 2.9 °F 12.2 °F 93% 30.15 in 6.0 mi North 8.1 mph - N/A Snow Light Snow
11:25 PM 14.0 °F 2.0 °F 12.2 °F 93% 30.13 in 7.0 mi NNE 9.2 mph - N/A Snow Light Snow
11:41 PM 14.0 °F -0.2 °F 14.0 °F 100% 30.09 in 3.0 mi NNE 12.7 mph - N/A Snow Light Snow
11:48 PM 14.0 °F -0.2 °F 14.0 °F 100% 30.09 in 3.0 mi NNE 12.7 mph - N/A Snow Light Snow
11:58 PM 14.7 °F 1.4 °F 13.1 °F 93% 30.12 in 5.0 mi NNE 11.5 mph - 0.03 in Snow Light Snow